Regional Weather Roundup
Issued by NWS

Home | Current Version | Previous Version | Graphics & Text | Print | Product List | Glossary On
Versions: 1 2 3 4 5 6 7 8 9 10 11 12 13 14 15 16 17 18 19 20 21 22 23 24 25 26 27 28 29 30 31 32 33 34 35 36 37 38 39 40 41 42 43 44 45 46 47 48 49 50
000
ASUS43 KLOT 310303
RWRIL

ILLINOIS REGIONAL WEATHER ROUNDUP
NATIONAL WEATHER SERVICE CHICAGO/ROMEOVILLE IL
1000 PM CDT SAT JUL 30 2016

NOTE: "FAIR" INDICATES FEW OR NO CLOUDS BELOW 12,000 FEET WITH NO
SIGNIFICANT WEATHER AND/OR OBSTRUCTIONS TO VISIBILITY.

* THESE STATIONS ARE NOT UNDER NWS QUALITY CONTROL. THEY ALSO MAY NOT
  REPORT WEATHER SUCH AS PRECIPITATION OR FOG.

ILZ001-002-007-009-015-016-024-310400-
NORTHWEST ILLINOIS

CITY           SKY/WX    TMP DP  RH WIND       PRES   REMARKS
MOLINE         CLEAR     73  66  78 E6        29.99R
STERLING*      CLEAR     69  65  86 E7        30.01R
SAVANNA*       CLEAR     69  64  83 CALM      30.00R
$$

ILZ003-004-008-010-011-017-018-310400-
NORTH CENTRAL ILLINOIS

CITY           SKY/WX    TMP DP  RH WIND       PRES   REMARKS
ROCKFORD       CLEAR     69  61  75 E6        30.03R
FREEPORT*      CLEAR     65  62  87 E3        30.03R
ROCHELLE*      CLEAR     67  64  89 NE7       30.02R
DE KALB*       CLEAR     65  63  91 NE7       30.03R
$$

ILZ005-006-012>014-019>023-310400-
NORTHEAST ILLINOIS

CITY           SKY/WX    TMP DP  RH WIND       PRES   REMARKS
CHICAGO-OHARE  MOCLDY    70  64  81 NE8       30.00S
CHICAGO-MIDWAY MOCLDY    73  64  73 NE13      29.99R
AURORA         CLEAR     69  63  81 NE6       30.01R
LANSING*       PTCLDY    71  65  80 NE9       29.99S
WAUKEGAN       PTCLDY    68  62  81 N3        30.01R
DUPAGE AIRPORT CLEAR     68  62  81 NE7       30.00S
KANKAKEE*      PTCLDY    67  65  91 CALM      30.01R
WHEELING       PTCLDY    69  64  84 CALM      30.02R
MORRIS*        CLEAR     67  65  91 CALM      30.00R
NORTHERLY ISL    N/A     72  65  78 N9          N/A
$$

LMZ740>746-310400-
SOUTHERN LAKE MICHIGAN

STATION/POSITION SKY/WX   TEMP    WIND        PRES    VSBY  WAVE
                          AIR SEA DIR/SP/G                  HT/PER
                          (F)     (DEG/KT/KT) (MB)    (MI)  (FT/S)
SOUTHERN BUOY              72 73   60/ 10/ 12 1015.0          2/ 4
WILMETTE HARBOR            72 71   60/ 12/ 16   N/A           3/ 3
HARRISON CRIB              73      20/ 15/ 16   N/A
BURNHAM HARBOR             72      20/  9/ 12   N/A
CALUMET HARBOR                     10/  9/ 12 1015.0R
BURNS HARBOR               70      40/ 11/ 14 1015.9R
MICHIGAN CITY              69      30/ 11/ 13   N/A
MICHIGAN CITY 6N           72 72   30/ 12/ 16   N/A           3/ 4
ST. JOSEPH                 67 67   30/  8/ 10 1015.3R         2/ 4
$$

ILZ025>027-034>036-040-047-049-050-058-095>099-310400-
WEST-CENTRAL ILLINOIS

CITY           SKY/WX    TMP DP  RH WIND       PRES   REMARKS
QUINCY         CLEAR     74  69  85 E3        29.99R
GALESBURG*     CLEAR     69  66  92 CALM      30.00R
MACOMB*        CLEAR     68  66  94 CALM      30.01R
JACKSONVILLE*  CLEAR     71  68  90 CALM      29.98R
PITTSFIELD*    CLEAR     71  68  92 CALM      30.00R
$$

ILZ028>032-037-038-041>044-048-051>054-059>061-310400-
CENTRAL ILLINOIS

CITY           SKY/WX    TMP DP  RH WIND       PRES   REMARKS
BLOOMINGTON    PTCLDY    69  67  93 CALM      30.01R
DECATUR        CLEAR     75  67  76 W3        29.98R
PEORIA         CLEAR     72  69  90 CALM      29.99R
LACON*         MOCLDY    69  67  94 CALM      29.99R
LINCOLN*       CLOUDY    75  70  86 CALM      29.98R
SPRINGFIELD    CLEAR     72  69  90 CALM      29.98R
TAYLORVILLE    MOCLDY    71  69  95 MISG      29.99R
$$

ILZ033-039-045-046-055>057-062-063-310400-
EAST-CENTRAL ILLINOIS

CITY           SKY/WX    TMP DP  RH WIND       PRES   REMARKS
CHAMPAIGN      PTCLDY    70  68  93 CALM      29.98R
MATTOON        CLEAR     72  67  84 CALM      29.98R
PARIS*         PTCLDY    68  68  99 CALM      29.99R
$$

ILZ079-100>102-310400-
SOUTHWEST ILLINOIS

CITY           SKY/WX    TMP DP  RH WIND       PRES   REMARKS
ALTON          CLEAR     72  68  88 CALM      29.97S
BELLEVILLE     CLEAR     73  73  99 CALM      29.96R
CAHOKIA*       CLEAR     75  67  76 CALM      29.96R
SPARTA*        CLEAR     74  69  86 CALM      29.97F
$$

ILZ064>066-069>071-074>076-080>082-084>086-088>090-092>094-310400-
SOUTH-CENTRAL ILLINOIS

CITY           SKY/WX    TMP DP  RH WIND       PRES   REMARKS
CARBONDALE     CLEAR     74  71  91 CALM      29.96S
CAIRO*         PTCLDY    75  73  95 CALM      29.96R
EFFINGHAM*     CLEAR     70  70 100 CALM      29.99R
MARION         CLEAR     75  73  94 CALM      29.98R
MT. VERNON     CLEAR     70  64  83 CALM      29.98S
CENTRALIA*     CLEAR     72  71  98 CALM      29.97S
SALEM*         CLEAR     72  69  89 CALM      29.98R
METROPOLIS*    CLOUDY    75  74  94 CALM      29.97R
$$

ILZ067-068-072-073-078-083-087-091-310400-
SOUTHEAST ILLINOIS

CITY           SKY/WX    TMP DP  RH WIND       PRES   REMARKS
LAWRENCEVILLE  CLEAR     72  71  97 CALM      29.98R
FLORA*         CLEAR     72  69  92 CALM      29.98R
FAIRFIELD*     CLEAR     72  71  96 CALM      29.96S
HARRISBURG*    CLEAR     74  74  99 CALM      29.97R
ROBINSON*      CLEAR     70  68  95 CALM      29.98R
CARMI*         CLEAR     72  72 100 CALM      29.97R FOG
$$

ABBREVIATIONS USED IN REMARKS
   TC - TEMPERATURE IN CELSIUS
  WCI - WIND CHILL INDEX
   HX - HEAT INDEX
  VSB - VISIBILITY
$$





USA.gov is the U.S. government's official web portal to all federal, state and local government web resources and services.